Time,TemperatureF,DewpointF,PressureIn,WindDirection,WindDirectionDegrees,WindSpeedMPH,WindSpeedGustMPH,Humidity,HourlyPrecipIn,Conditions,Clouds,dailyrainin,SoftwareType,DateUTC
2013-10-17 00:00:00,53.5,52.1,30.18,ESE,120,5.0,15.0,95,0.16,,,0.22,Wunderground v.1.15,2013-10-17 03:00:00,
2013-10-17 00:05:00,53.5,52.1,30.18,East,92,4.0,15.0,95,0.20,,,0.01,Wunderground v.1.15,2013-10-17 03:05:00,
2013-10-17 00:10:00,53.5,52.1,30.18,ESE,115,4.0,15.0,95,0.15,,,0.02,Wunderground v.1.15,2013-10-17 03:10:00,
2013-10-17 00:15:00,53.5,52.1,30.18,SE,129,3.0,15.0,95,0.12,,,0.03,Wunderground v.1.15,2013-10-17 03:15:00,
2013-10-17 00:20:00,53.5,52.1,30.17,East,96,2.0,15.0,95,0.21,,,0.04,Wunderground v.1.15,2013-10-17 03:20:00,
2013-10-17 00:25:00,53.5,52.1,30.17,SE,124,2.0,15.0,95,0.13,,,0.05,Wunderground v.1.15,2013-10-17 03:25:00,
2013-10-17 00:30:00,53.5,52.1,30.16,SE,139,3.0,15.0,95,0.12,,,0.06,Wunderground v.1.15,2013-10-17 03:30:00,
2013-10-17 00:35:00,53.5,52.1,30.16,East,97,2.0,15.0,95,0.09,,,0.06,Wunderground v.1.15,2013-10-17 03:35:00,
2013-10-17 00:40:00,53.5,52.1,30.16,SE,140,2.0,15.0,95,0.08,,,0.07,Wunderground v.1.15,2013-10-17 03:40:00,
2013-10-17 00:50:00,53.6,52.2,30.15,SSE,153,4.0,4.0,95,0.05,,,0.08,Wunderground v.1.15,2013-10-17 03:50:00,
2013-10-17 00:55:00,53.6,52.2,30.14,ESE,110,4.0,15.0,95,0.14,,,0.09,Wunderground v.1.15,2013-10-17 03:55:00,
2013-10-17 01:00:00,53.6,52.2,30.14,ESE,111,5.0,5.0,95,0.21,,,0.10,Wunderground v.1.15,2013-10-17 04:00:00,
2013-10-17 01:05:00,53.7,52.3,30.14,SSE,148,5.0,15.0,95,0.15,,,0.11,Wunderground v.1.15,2013-10-17 04:05:00,
2013-10-17 01:10:00,53.7,52.3,30.14,South,191,5.0,5.0,95,0.10,,,0.12,Wunderground v.1.15,2013-10-17 04:10:00,
2013-10-17 01:15:00,53.7,52.3,30.14,ESE,107,4.0,15.0,95,0.13,,,0.13,Wunderground v.1.15,2013-10-17 04:15:00,
2013-10-17 01:25:00,53.7,52.6,30.13,ESE,111,3.0,5.0,96,0.38,,,0.20,Wunderground v.1.15,2013-10-17 04:25:00,
2013-10-17 01:30:00,53.7,52.6,30.12,SE,143,4.0,15.0,96,0.33,,,0.22,Wunderground v.1.15,2013-10-17 04:30:00,
2013-10-17 01:35:00,53.8,52.7,30.11,ESE,104,4.0,15.0,96,0.18,,,0.23,Wunderground v.1.15,2013-10-17 04:35:00,
2013-10-17 01:40:00,53.9,52.8,30.11,ESE,103,5.0,5.0,96,0.11,,,0.24,Wunderground v.1.15,2013-10-17 04:40:00,
2013-10-17 01:45:00,53.9,52.8,30.11,ENE,77,6.0,7.0,96,0.09,,,0.24,Wunderground v.1.15,2013-10-17 04:45:00,
2013-10-17 01:50:00,53.9,52.8,30.11,East,97,6.0,15.0,96,0.09,,,0.24,Wunderground v.1.15,2013-10-17 04:50:00,
2013-10-17 01:55:00,54.0,52.9,30.11,SE,124,6.0,15.0,96,0.07,,,0.25,Wunderground v.1.15,2013-10-17 04:55:00,
2013-10-17 02:00:00,54.1,53.0,30.11,ESE,117,6.0,6.0,96,0.08,,,0.26,Wunderground v.1.15,2013-10-17 05:00:00,
2013-10-17 02:05:00,54.1,53.0,30.10,SE,125,7.0,7.0,96,0.13,,,0.27,Wunderground v.1.15,2013-10-17 05:05:00,
2013-10-17 02:10:00,54.1,53.0,30.10,East,79,6.0,15.0,96,0.60,,,0.30,Wunderground v.1.15,2013-10-17 05:10:00,
2013-10-17 02:15:00,54.0,52.9,30.09,ESE,113,5.0,15.0,96,0.13,,,0.31,Wunderground v.1.15,2013-10-17 05:15:00,
2013-10-17 02:20:00,54.1,53.0,30.09,SE,140,6.0,15.0,96,0.21,,,0.32,Wunderground v.1.15,2013-10-17 05:20:00,
2013-10-17 02:25:00,54.0,52.9,30.09,SSW,211,6.0,15.0,96,0.19,,,0.34,Wunderground v.1.15,2013-10-17 05:25:00,
2013-10-17 02:30:00,54.1,53.0,30.08,ESE,103,7.0,7.0,96,0.12,,,0.35,Wunderground v.1.15,2013-10-17 05:30:00,
2013-10-17 02:35:00,54.1,53.0,30.08,East,86,6.0,8.0,96,0.14,,,0.35,Wunderground v.1.15,2013-10-17 05:35:00,
2013-10-17 02:40:00,54.2,53.1,30.08,East,82,5.0,15.0,96,0.10,,,0.35,Wunderground v.1.15,2013-10-17 05:40:00,
2013-10-17 02:45:00,54.2,53.1,30.07,ENE,66,6.0,15.0,96,0.05,,,0.35,Wunderground v.1.15,2013-10-17 05:45:00,
2013-10-17 02:50:00,54.2,53.1,30.07,ESE,106,7.0,7.0,96,0.05,,,0.36,Wunderground v.1.15,2013-10-17 05:50:00,
2013-10-17 03:00:00,54.1,53.0,30.07,SE,130,5.0,15.0,96,0.05,,,0.36,Wunderground v.1.15,2013-10-17 06:00:00,
2013-10-17 03:05:00,54.1,53.0,30.07,SE,141,6.0,15.0,96,0.00,,,0.36,Wunderground v.1.15,2013-10-17 06:05:00,
2013-10-17 03:10:00,54.1,53.0,30.06,ESE,119,5.0,5.0,96,0.00,,,0.36,Wunderground v.1.15,2013-10-17 06:10:00,
2013-10-17 03:15:00,54.2,53.1,30.06,East,84,4.0,7.0,96,0.00,,,0.36,Wunderground v.1.15,2013-10-17 06:15:00,
2013-10-17 03:20:00,54.3,53.2,30.06,ESE,105,5.0,5.0,96,0.00,,,0.36,Wunderground v.1.15,2013-10-17 06:20:00,
2013-10-17 03:25:00,54.3,53.2,30.06,East,96,5.0,15.0,96,0.00,,,0.36,Wunderground v.1.15,2013-10-17 06:25:00,
2013-10-17 03:35:00,54.4,53.3,30.05,South,169,5.0,15.0,96,0.00,,,0.36,Wunderground v.1.15,2013-10-17 06:35:00,
2013-10-17 03:40:00,54.4,53.3,30.05,ENE,78,4.0,4.0,96,0.00,,,0.36,Wunderground v.1.15,2013-10-17 06:40:00,
2013-10-17 03:45:00,54.4,53.3,30.05,ESE,113,3.0,6.0,96,0.00,,,0.36,Wunderground v.1.15,2013-10-17 06:45:00,
2013-10-17 03:50:00,54.5,53.4,30.04,East,91,3.0,15.0,96,0.00,,,0.36,Wunderground v.1.15,2013-10-17 06:50:00,
2013-10-17 03:55:00,54.6,53.5,30.04,SE,125,4.0,15.0,96,0.00,,,0.36,Wunderground v.1.15,2013-10-17 06:55:00,
2013-10-17 04:05:00,54.7,53.6,30.04,East,82,4.0,15.0,96,0.00,,,0.36,Wunderground v.1.15,2013-10-17 07:05:00,
2013-10-17 04:10:00,54.7,53.6,30.04,SSE,148,4.0,4.0,96,0.00,,,0.36,Wunderground v.1.15,2013-10-17 07:10:00,
2013-10-17 04:15:00,54.7,53.6,30.03,East,84,3.0,15.0,96,0.00,,,0.36,Wunderground v.1.15,2013-10-17 07:15:00,
2013-10-17 04:20:00,54.8,53.7,30.03,ESE,109,4.0,4.0,96,0.00,,,0.36,Wunderground v.1.15,2013-10-17 07:20:00,
2013-10-17 04:25:00,54.9,53.8,30.03,East,93,5.0,6.0,96,0.00,,,0.36,Wunderground v.1.15,2013-10-17 07:25:00,
2013-10-17 04:30:00,54.9,53.8,30.03,East,79,6.0,15.0,96,0.00,,,0.36,Wunderground v.1.15,2013-10-17 07:30:00,
2013-10-17 04:40:00,54.9,53.8,30.02,ESE,102,5.0,5.0,96,0.00,,,0.36,Wunderground v.1.15,2013-10-17 07:40:00,
2013-10-17 04:45:00,54.9,53.5,30.02,East,80,5.0,15.0,95,0.00,,,0.36,Wunderground v.1.15,2013-10-17 07:45:00,
2013-10-17 04:50:00,54.8,53.7,30.01,East,92,4.0,15.0,96,0.00,,,0.36,Wunderground v.1.15,2013-10-17 07:50:00,
2013-10-17 04:55:00,54.8,53.7,30.01,SE,129,4.0,15.0,96,0.00,,,0.36,Wunderground v.1.15,2013-10-17 07:55:00,
2013-10-17 05:00:00,54.8,53.7,30.01,ENE,65,5.0,15.0,96,0.00,,,0.36,Wunderground v.1.15,2013-10-17 08:00:00,
2013-10-17 05:05:00,54.8,53.7,30.00,ESE,117,4.0,15.0,96,0.00,,,0.36,Wunderground v.1.15,2013-10-17 08:05:00,
2013-10-17 05:10:00,54.8,53.7,30.00,ESE,111,5.0,5.0,96,0.00,,,0.36,Wunderground v.1.15,2013-10-17 08:10:00,
2013-10-17 05:15:00,54.8,53.7,29.99,East,97,4.0,15.0,96,0.00,,,0.36,Wunderground v.1.15,2013-10-17 08:15:00,
2013-10-17 05:20:00,54.9,53.8,29.99,SE,128,5.0,15.0,96,0.00,,,0.36,Wunderground v.1.15,2013-10-17 08:20:00,
2013-10-17 05:25:00,54.9,53.8,29.99,SE,131,5.0,15.0,96,0.00,,,0.36,Wunderground v.1.15,2013-10-17 08:25:00,
2013-10-17 05:30:00,55.0,53.9,29.98,SSE,150,5.0,5.0,96,0.00,,,0.36,Wunderground v.1.15,2013-10-17 08:30:00,
2013-10-17 05:35:00,55.0,53.9,29.98,East,85,5.0,15.0,96,0.00,,,0.36,Wunderground v.1.15,2013-10-17 08:35:00,
2013-10-17 05:45:00,55.1,54.0,29.98,ENE,66,5.0,15.0,96,0.00,,,0.36,Wunderground v.1.15,2013-10-17 08:45:00,
2013-10-17 05:50:00,55.2,54.1,29.98,SE,127,5.0,15.0,96,0.00,,,0.36,Wunderground v.1.15,2013-10-17 08:50:00,
2013-10-17 05:55:00,55.3,54.2,29.98,ESE,110,4.0,15.0,96,0.00,,,0.36,Wunderground v.1.15,2013-10-17 08:55:00,
2013-10-17 06:00:00,55.3,54.2,29.99,ESE,103,4.0,4.0,96,0.00,,,0.36,Wunderground v.1.15,2013-10-17 09:00:00,
2013-10-17 06:05:00,55.4,54.3,29.98,SE,134,4.0,15.0,96,0.00,,,0.36,Wunderground v.1.15,2013-10-17 09:05:00,
2013-10-17 06:10:00,55.5,54.4,29.98,SSE,159,3.0,15.0,96,0.00,,,0.36,Wunderground v.1.15,2013-10-17 09:10:00,
2013-10-17 06:15:00,55.5,54.4,29.98,ESE,115,3.0,15.0,96,0.00,,,0.36,Wunderground v.1.15,2013-10-17 09:15:00,
2013-10-17 06:20:00,55.6,54.5,29.98,ESE,123,2.0,2.0,96,0.00,,,0.36,Wunderground v.1.15,2013-10-17 09:20:00,
2013-10-17 06:25:00,55.7,54.6,29.97,SSW,195,2.0,15.0,96,0.00,,,0.36,Wunderground v.1.15,2013-10-17 09:25:00,
2013-10-17 06:30:00,55.7,54.6,29.97,SE,133,2.0,15.0,96,0.00,,,0.36,Wunderground v.1.15,2013-10-17 09:30:00,
2013-10-17 06:35:00,55.9,54.8,29.97,East,90,2.0,15.0,96,0.00,,,0.36,Wunderground v.1.15,2013-10-17 09:35:00,
2013-10-17 06:45:00,56.1,55.0,29.97,ESE,115,2.0,15.0,96,0.00,,,0.36,Wunderground v.1.15,2013-10-17 09:45:00,
2013-10-17 06:50:00,56.2,55.1,29.97,ESE,113,2.0,15.0,96,0.00,,,0.36,Wunderground v.1.15,2013-10-17 09:50:00,
2013-10-17 06:55:00,56.3,55.5,29.96,East,79,2.0,15.0,97,0.00,,,0.36,Wunderground v.1.15,2013-10-17 09:55:00,
2013-10-17 07:00:00,56.4,55.6,29.96,ESE,106,3.0,3.0,97,0.00,,,0.36,Wunderground v.1.15,2013-10-17 10:00:00,
2013-10-17 07:05:00,56.5,55.7,29.96,East,89,3.0,4.0,97,0.00,,,0.36,Wunderground v.1.15,2013-10-17 10:05:00,
2013-10-17 07:10:00,56.6,55.8,29.96,ESE,121,3.0,3.0,97,0.00,,,0.36,Wunderground v.1.15,2013-10-17 10:10:00,
2013-10-17 07:20:00,56.8,56.0,29.96,SW,232,2.0,2.0,97,0.00,,,0.36,Wunderground v.1.15,2013-10-17 10:20:00,
2013-10-17 07:25:00,56.8,56.0,29.96,ESE,104,1.0,15.0,97,0.00,,,0.36,Wunderground v.1.15,2013-10-17 10:25:00,
2013-10-17 07:30:00,56.9,56.1,29.96,SE,124,1.0,1.0,97,0.00,,,0.36,Wunderground v.1.15,2013-10-17 10:30:00,
2013-10-17 07:35:00,57.0,56.2,29.96,SSE,155,1.0,15.0,97,0.00,,,0.36,Wunderground v.1.15,2013-10-17 10:35:00,
2013-10-17 07:40:00,57.0,56.2,29.96,East,84,0.0,15.0,97,0.00,,,0.36,Wunderground v.1.15,2013-10-17 10:40:00,
2013-10-17 07:50:00,57.3,56.5,29.96,SSE,147,0.0,15.0,97,0.00,,,0.36,Wunderground v.1.15,2013-10-17 10:50:00,
2013-10-17 07:55:00,57.5,56.7,29.95,ESE,117,0.0,15.0,97,0.00,,,0.36,Wunderground v.1.15,2013-10-17 10:55:00,
2013-10-17 08:00:00,57.6,56.8,29.95,SE,136,1.0,1.0,97,0.00,,,0.36,Wunderground v.1.15,2013-10-17 11:00:00,
2013-10-17 08:05:00,57.8,57.0,29.95,SE,131,1.0,15.0,97,0.00,,,0.36,Wunderground v.1.15,2013-10-17 11:05:00,
2013-10-17 08:10:00,58.0,57.2,29.95,SE,131,0.0,15.0,97,0.00,,,0.36,Wunderground v.1.15,2013-10-17 11:10:00,
2013-10-17 08:15:00,58.1,57.3,29.95,SSE,158,1.0,15.0,97,0.00,,,0.36,Wunderground v.1.15,2013-10-17 11:15:00,
2013-10-17 08:25:00,58.4,57.6,29.96,SSW,193,1.0,15.0,97,0.00,,,0.36,Wunderground v.1.15,2013-10-17 11:25:00,
2013-10-17 08:30:00,58.5,57.7,29.96,SSE,165,1.0,1.0,97,0.00,,,0.36,Wunderground v.1.15,2013-10-17 11:30:00,
2013-10-17 08:35:00,58.6,57.8,29.95,South,169,1.0,2.0,97,0.00,,,0.36,Wunderground v.1.15,2013-10-17 11:35:00,
2013-10-17 08:40:00,58.8,58.0,29.95,SSE,152,1.0,15.0,97,0.00,,,0.36,Wunderground v.1.15,2013-10-17 11:40:00,
2013-10-17 08:45:00,59.0,58.2,29.95,SSE,159,1.0,15.0,97,0.00,,,0.36,Wunderground v.1.15,2013-10-17 11:45:00,
2013-10-17 08:55:00,59.4,58.5,29.95,SSE,167,1.0,15.0,97,0.00,,,0.36,Wunderground v.1.15,2013-10-17 11:55:00,
2013-10-17 09:00:00,59.6,58.7,29.95,SSE,149,1.0,1.0,97,0.00,,,0.36,Wunderground v.1.15,2013-10-17 12:00:00,
2013-10-17 09:05:00,59.7,58.8,29.95,SSW,204,1.0,15.0,97,0.00,,,0.36,Wunderground v.1.15,2013-10-17 12:05:00,
2013-10-17 09:10:00,59.8,58.9,29.95,SE,128,1.0,15.0,97,0.00,,,0.36,Wunderground v.1.15,2013-10-17 12:10:00,
2013-10-17 09:15:00,59.9,59.0,29.95,SE,143,1.0,15.0,97,0.00,,,0.36,Wunderground v.1.15,2013-10-17 12:15:00,
2013-10-17 09:20:00,60.0,59.1,29.95,SE,145,2.0,2.0,97,0.00,,,0.36,Wunderground v.1.15,2013-10-17 12:20:00,
2013-10-17 09:25:00,60.2,59.3,29.94,SSE,158,2.0,15.0,97,0.00,,,0.36,Wunderground v.1.15,2013-10-17 12:25:00,
2013-10-17 09:30:00,60.3,59.4,29.94,ESE,121,2.0,15.0,97,0.00,,,0.36,Wunderground v.1.15,2013-10-17 12:30:00,
2013-10-17 09:35:00,60.4,59.5,29.95,SSE,162,2.0,15.0,97,0.00,,,0.36,Wunderground v.1.15,2013-10-17 12:35:00,
2013-10-17 09:40:00,60.4,59.5,29.95,SSE,166,2.0,15.0,97,0.00,,,0.36,Wunderground v.1.15,2013-10-17 12:40:00,
2013-10-17 09:45:00,60.6,59.7,29.94,SE,143,2.0,15.0,97,0.00,,,0.36,Wunderground v.1.15,2013-10-17 12:45:00,
2013-10-17 09:55:00,60.8,59.9,29.94,South,176,1.0,15.0,97,0.00,,,0.36,Wunderground v.1.15,2013-10-17 12:55:00,
2013-10-17 10:00:00,61.0,60.1,29.94,SE,145,1.0,15.0,97,0.00,,,0.36,Wunderground v.1.15,2013-10-17 13:00:00,
2013-10-17 10:05:00,61.2,60.3,29.93,South,173,2.0,15.0,97,0.00,,,0.36,Wunderground v.1.15,2013-10-17 13:05:00,
2013-10-17 10:10:00,61.4,60.5,29.93,SSE,160,2.0,15.0,97,0.00,,,0.36,Wunderground v.1.15,2013-10-17 13:10:00,
2013-10-17 10:15:00,61.5,60.6,29.93,SSW,212,3.0,15.0,97,0.00,,,0.36,Wunderground v.1.15,2013-10-17 13:15:00,
2013-10-17 10:20:00,61.7,60.8,29.93,South,177,3.0,3.0,97,0.00,,,0.36,Wunderground v.1.15,2013-10-17 13:20:00,
2013-10-17 10:30:00,62.5,61.6,29.92,South,188,3.0,3.0,97,0.00,,,0.36,Wunderground v.1.15,2013-10-17 13:30:00,
2013-10-17 10:35:00,62.6,61.7,29.92,SE,135,3.0,15.0,97,0.00,,,0.36,Wunderground v.1.15,2013-10-17 13:35:00,
2013-10-17 10:40:00,62.7,61.8,29.93,South,177,3.0,15.0,97,0.00,,,0.36,Wunderground v.1.15,2013-10-17 13:40:00,
2013-10-17 10:45:00,62.6,61.7,29.93,SSE,153,3.0,15.0,97,0.00,,,0.36,Wunderground v.1.15,2013-10-17 13:45:00,
2013-10-17 10:50:00,62.6,61.7,29.93,South,176,3.0,15.0,97,0.00,,,0.36,Wunderground v.1.15,2013-10-17 13:50:00,
2013-10-17 10:55:00,62.6,61.7,29.92,South,188,3.0,15.0,97,0.00,,,0.36,Wunderground v.1.15,2013-10-17 13:55:00,
2013-10-17 11:05:00,62.9,62.0,29.92,SSE,157,4.0,15.0,97,0.00,,,0.36,Wunderground v.1.15,2013-10-17 14:05:00,
2013-10-17 11:10:00,63.0,62.1,29.92,SE,130,4.0,4.0,97,0.00,,,0.36,Wunderground v.1.15,2013-10-17 14:10:00,
2013-10-17 11:15:00,63.2,62.3,29.92,ESE,117,3.0,15.0,97,0.00,,,0.36,Wunderground v.1.15,2013-10-17 14:15:00,
2013-10-17 11:20:00,63.3,62.4,29.92,South,169,3.0,15.0,97,0.00,,,0.36,Wunderground v.1.15,2013-10-17 14:20:00,
2013-10-17 11:25:00,63.8,62.9,29.91,SW,215,4.0,15.0,97,0.00,,,0.36,Wunderground v.1.15,2013-10-17 14:25:00,
2013-10-17 11:35:00,64.2,63.0,29.91,South,186,4.0,15.0,96,0.00,,,0.36,Wunderground v.1.15,2013-10-17 14:35:00,
2013-10-17 11:40:00,64.3,63.1,29.90,SSE,157,5.0,5.0,96,0.00,,,0.36,Wunderground v.1.15,2013-10-17 14:40:00,
2013-10-17 11:45:00,64.4,63.2,29.90,SSW,192,5.0,15.0,96,0.00,,,0.36,Wunderground v.1.15,2013-10-17 14:45:00,
2013-10-17 11:50:00,64.4,63.2,29.90,South,190,5.0,5.0,96,0.00,,,0.36,Wunderground v.1.15,2013-10-17 14:50:00,
2013-10-17 11:55:00,64.3,63.1,29.90,SW,235,4.0,15.0,96,0.00,,,0.36,Wunderground v.1.15,2013-10-17 14:55:00,
2013-10-17 12:00:00,64.2,63.0,29.90,SSE,150,4.0,15.0,96,0.00,,,0.36,Wunderground v.1.15,2013-10-17 15:00:00,
2013-10-17 12:10:00,64.3,63.1,29.90,SSW,200,4.0,4.0,96,0.00,,,0.36,Wunderground v.1.15,2013-10-17 15:10:00,
2013-10-17 12:15:00,64.5,63.3,29.90,South,187,5.0,5.0,96,0.00,,,0.36,Wunderground v.1.15,2013-10-17 15:15:00,
2013-10-17 12:20:00,64.6,63.4,29.90,SSW,198,5.0,5.0,96,0.00,,,0.36,Wunderground v.1.15,2013-10-17 15:20:00,
2013-10-17 12:25:00,64.6,63.4,29.90,SW,214,4.0,15.0,96,0.00,,,0.36,Wunderground v.1.15,2013-10-17 15:25:00,
2013-10-17 12:30:00,64.6,63.4,29.89,South,190,4.0,4.0,96,0.00,,,0.36,Wunderground v.1.15,2013-10-17 15:30:00,
2013-10-17 12:40:00,64.8,63.6,29.89,SSW,203,4.0,4.0,96,0.00,,,0.36,Wunderground v.1.15,2013-10-17 15:40:00,
2013-10-17 12:45:00,64.7,63.2,29.88,SSW,207,4.0,6.0,95,0.00,,,0.36,Wunderground v.1.15,2013-10-17 15:45:00,
2013-10-17 12:50:00,64.7,63.2,29.88,SSW,197,4.0,4.0,95,0.00,,,0.36,Wunderground v.1.15,2013-10-17 15:50:00,
2013-10-17 12:55:00,64.7,63.2,29.88,SSE,160,4.0,15.0,95,0.00,,,0.36,Wunderground v.1.15,2013-10-17 15:55:00,
2013-10-17 13:00:00,64.7,63.2,29.88,South,182,4.0,15.0,95,0.00,,,0.36,Wunderground v.1.15,2013-10-17 16:00:00,
2013-10-17 13:05:00,64.6,63.1,29.88,SSW,204,5.0,15.0,95,0.00,,,0.36,Wunderground v.1.15,2013-10-17 16:05:00,
2013-10-17 13:10:00,64.7,63.5,29.87,South,187,4.0,4.0,96,0.00,,,0.36,Wunderground v.1.15,2013-10-17 16:10:00,
2013-10-17 13:15:00,64.9,63.4,29.87,South,183,4.0,6.0,95,0.00,,,0.36,Wunderground v.1.15,2013-10-17 16:15:00,
2013-10-17 13:20:00,65.0,63.5,29.86,SSE,162,5.0,5.0,95,0.00,,,0.36,Wunderground v.1.15,2013-10-17 16:20:00,
2013-10-17 13:25:00,65.0,63.5,29.87,South,188,4.0,15.0,95,0.00,,,0.36,Wunderground v.1.15,2013-10-17 16:25:00,
2013-10-17 13:30:00,65.2,63.7,29.87,SW,229,3.0,15.0,95,0.00,,,0.36,Wunderground v.1.15,2013-10-17 16:30:00,
2013-10-17 13:35:00,65.2,63.7,29.86,South,174,3.0,15.0,95,0.00,,,0.36,Wunderground v.1.15,2013-10-17 16:35:00,
2013-10-17 13:45:00,65.7,64.2,29.86,SSE,148,3.0,8.0,95,0.00,,,0.36,Wunderground v.1.15,2013-10-17 16:45:00,
2013-10-17 13:50:00,65.7,63.9,29.86,South,191,4.0,15.0,94,0.00,,,0.36,Wunderground v.1.15,2013-10-17 16:50:00,
2013-10-17 13:55:00,65.9,64.1,29.86,SW,218,5.0,15.0,94,0.00,,,0.36,Wunderground v.1.15,2013-10-17 16:55:00,
2013-10-17 14:00:00,66.1,64.0,29.86,South,174,4.0,4.0,93,0.00,,,0.36,Wunderground v.1.15,2013-10-17 17:00:00,
2013-10-17 14:05:00,66.3,64.2,29.85,SSW,193,3.0,15.0,93,0.00,,,0.36,Wunderground v.1.15,2013-10-17 17:05:00,
2013-10-17 14:15:00,66.3,64.2,29.85,SE,129,4.0,15.0,93,0.00,,,0.36,Wunderground v.1.15,2013-10-17 17:15:00,
2013-10-17 14:20:00,66.3,63.9,29.85,SSW,205,4.0,15.0,92,0.00,,,0.36,Wunderground v.1.15,2013-10-17 17:20:00,
2013-10-17 14:25:00,66.3,63.9,29.85,SSW,212,4.0,15.0,92,0.00,,,0.36,Wunderground v.1.15,2013-10-17 17:25:00,
2013-10-17 14:30:00,66.5,64.1,29.85,South,180,4.0,15.0,92,0.00,,,0.36,Wunderground v.1.15,2013-10-17 17:30:00,
2013-10-17 14:35:00,66.7,64.3,29.84,SSW,194,4.0,15.0,92,0.00,,,0.36,Wunderground v.1.15,2013-10-17 17:35:00,
2013-10-17 14:40:00,66.9,64.5,29.85,SSE,151,4.0,4.0,92,0.00,,,0.36,Wunderground v.1.15,2013-10-17 17:40:00,
2013-10-17 14:50:00,67.3,64.6,29.84,SSE,152,3.0,15.0,91,0.00,,,0.36,Wunderground v.1.15,2013-10-17 17:50:00,
2013-10-17 14:55:00,67.4,64.7,29.84,SSW,194,3.0,15.0,91,0.00,,,0.36,Wunderground v.1.15,2013-10-17 17:55:00,
2013-10-17 15:00:00,67.5,64.8,29.84,SSE,155,4.0,4.0,91,0.00,,,0.36,Wunderground v.1.15,2013-10-17 18:00:00,
2013-10-17 15:05:00,67.5,64.8,29.83,East,101,4.0,15.0,91,0.00,,,0.36,Wunderground v.1.15,2013-10-17 18:05:00,
2013-10-17 15:10:00,67.7,65.0,29.84,SSW,193,3.0,3.0,91,0.00,,,0.36,Wunderground v.1.15,2013-10-17 18:10:00,
2013-10-17 15:20:00,68.2,65.2,29.84,SSW,198,3.0,15.0,90,0.00,,,0.36,Wunderground v.1.15,2013-10-17 18:20:00,
2013-10-17 15:25:00,68.3,65.3,29.83,SE,144,4.0,15.0,90,0.00,,,0.36,Wunderground v.1.15,2013-10-17 18:25:00,
2013-10-17 15:30:00,68.6,65.2,29.83,SE,140,4.0,15.0,89,0.00,,,0.36,Wunderground v.1.15,2013-10-17 18:30:00,
2013-10-17 15:35:00,68.8,65.4,29.83,SE,146,4.0,15.0,89,0.00,,,0.36,Wunderground v.1.15,2013-10-17 18:35:00,
2013-10-17 15:40:00,68.7,65.0,29.83,South,172,5.0,5.0,88,0.00,,,0.36,Wunderground v.1.15,2013-10-17 18:40:00,
2013-10-17 15:45:00,68.7,65.0,29.83,South,180,4.0,15.0,88,0.00,,,0.36,Wunderground v.1.15,2013-10-17 18:45:00,
2013-10-17 15:55:00,68.8,64.8,29.83,SSW,205,3.0,5.0,87,0.00,,,0.36,Wunderground v.1.15,2013-10-17 18:55:00,
2013-10-17 16:00:00,68.7,64.7,29.83,SSW,198,4.0,15.0,87,0.00,,,0.36,Wunderground v.1.15,2013-10-17 19:00:00,
2013-10-17 16:05:00,68.5,64.5,29.83,SW,214,4.0,15.0,87,0.00,,,0.36,Wunderground v.1.15,2013-10-17 19:05:00,
2013-10-17 16:10:00,68.4,64.4,29.83,South,187,3.0,15.0,87,0.00,,,0.36,Wunderground v.1.15,2013-10-17 19:10:00,
2013-10-17 16:15:00,68.4,64.4,29.83,South,184,3.0,15.0,87,0.00,,,0.36,Wunderground v.1.15,2013-10-17 19:15:00,
2013-10-17 16:25:00,68.1,63.8,29.82,SSW,200,4.0,15.0,86,0.00,,,0.36,Wunderground v.1.15,2013-10-17 19:25:00,
2013-10-17 16:35:00,67.9,63.6,29.82,SW,214,4.0,6.0,86,0.00,,,0.36,Wunderground v.1.15,2013-10-17 19:35:00,
2013-10-17 16:40:00,67.8,63.5,29.82,SSW,207,4.0,15.0,86,0.00,,,0.36,Wunderground v.1.15,2013-10-17 19:40:00,
2013-10-17 16:45:00,67.6,63.3,29.82,SSW,205,4.0,15.0,86,0.00,,,0.36,Wunderground v.1.15,2013-10-17 19:45:00,
2013-10-17 16:50:00,67.5,63.2,29.82,SSW,210,4.0,4.0,86,0.00,,,0.36,Wunderground v.1.15,2013-10-17 19:50:00,
2013-10-17 17:00:00,67.0,61.7,29.82,SW,221,5.0,5.0,83,0.00,,,0.36,Wunderground v.1.15,2013-10-17 20:00:00,
2013-10-17 17:05:00,66.8,61.1,29.81,SSW,199,5.0,15.0,82,0.00,,,0.36,Wunderground v.1.15,2013-10-17 20:05:00,
2013-10-17 17:10:00,66.6,60.6,29.81,South,186,4.0,4.0,81,0.00,,,0.36,Wunderground v.1.15,2013-10-17 20:10:00,
2013-10-17 17:15:00,66.6,60.6,29.81,South,190,4.0,15.0,81,0.00,,,0.36,Wunderground v.1.15,2013-10-17 20:15:00,
2013-10-17 17:20:00,66.4,60.7,29.81,South,176,3.0,15.0,82,0.00,,,0.36,Wunderground v.1.15,2013-10-17 20:20:00,
2013-10-17 17:30:00,66.4,60.7,29.81,SSW,195,3.0,3.0,82,0.00,,,0.36,Wunderground v.1.15,2013-10-17 20:30:00,
2013-10-17 17:35:00,66.4,60.7,29.81,SW,218,2.0,5.0,82,0.00,,,0.36,Wunderground v.1.15,2013-10-17 20:35:00,
2013-10-17 17:40:00,66.3,60.6,29.81,SSE,162,3.0,15.0,82,0.00,,,0.36,Wunderground v.1.15,2013-10-17 20:40:00,
2013-10-17 17:45:00,66.0,60.3,29.81,SSW,206,3.0,15.0,82,0.00,,,0.36,Wunderground v.1.15,2013-10-17 20:45:00,
2013-10-17 17:50:00,65.6,60.3,29.82,SSW,211,2.0,15.0,83,0.00,,,0.36,Wunderground v.1.15,2013-10-17 20:50:00,
2013-10-17 17:55:00,65.2,59.9,29.81,SSW,193,2.0,15.0,83,0.00,,,0.36,Wunderground v.1.15,2013-10-17 20:55:00,
2013-10-17 18:05:00,64.6,59.0,29.81,SSW,207,3.0,15.0,82,0.00,,,0.36,Wunderground v.1.15,2013-10-17 21:05:00,
2013-10-17 18:10:00,64.3,58.7,29.81,SSW,193,3.0,3.0,82,0.00,,,0.36,Wunderground v.1.15,2013-10-17 21:10:00,
2013-10-17 18:15:00,64.1,58.8,29.82,SSW,200,2.0,15.0,83,0.00,,,0.36,Wunderground v.1.15,2013-10-17 21:15:00,
2013-10-17 18:20:00,63.7,58.4,29.82,South,172,2.0,15.0,83,0.00,,,0.36,Wunderground v.1.15,2013-10-17 21:20:00,
2013-10-17 18:25:00,63.3,58.4,29.82,SSW,193,2.0,15.0,84,0.00,,,0.36,Wunderground v.1.15,2013-10-17 21:25:00,
2013-10-17 18:35:00,63.0,58.4,29.82,SSW,209,2.0,15.0,85,0.00,,,0.36,Wunderground v.1.15,2013-10-17 21:35:00,
2013-10-17 18:40:00,63.1,58.5,29.82,South,191,2.0,15.0,85,0.00,,,0.36,Wunderground v.1.15,2013-10-17 21:40:00,
2013-10-17 18:45:00,63.0,58.7,29.82,SW,229,2.0,15.0,86,0.00,,,0.36,Wunderground v.1.15,2013-10-17 21:45:00,
2013-10-17 18:50:00,63.0,58.7,29.82,SSE,165,3.0,15.0,86,0.00,,,0.36,Wunderground v.1.15,2013-10-17 21:50:00,
2013-10-17 18:55:00,62.8,58.5,29.82,SW,229,3.0,15.0,86,0.00,,,0.36,Wunderground v.1.15,2013-10-17 21:55:00,
2013-10-17 19:00:00,62.7,57.8,29.82,WSW,239,4.0,15.0,84,0.00,,,0.36,Wunderground v.1.15,2013-10-17 22:00:00,
2013-10-17 19:10:00,62.4,57.2,29.83,SW,219,5.0,15.0,83,0.00,,,0.36,Wunderground v.1.15,2013-10-17 22:10:00,
2013-10-17 19:15:00,62.1,56.9,29.83,South,175,4.0,15.0,83,0.00,,,0.36,Wunderground v.1.15,2013-10-17 22:15:00,
2013-10-17 19:20:00,61.9,57.0,29.82,South,184,4.0,4.0,84,0.00,,,0.36,Wunderground v.1.15,2013-10-17 22:20:00,
2013-10-17 19:25:00,61.6,56.7,29.83,SSW,200,4.0,15.0,84,0.00,,,0.36,Wunderground v.1.15,2013-10-17 22:25:00,
2013-10-17 19:30:00,61.4,56.5,29.83,SSW,209,4.0,4.0,84,0.00,,,0.36,Wunderground v.1.15,2013-10-17 22:30:00,
2013-10-17 19:35:00,61.0,56.5,29.83,SSW,197,4.0,15.0,85,0.00,,,0.36,Wunderground v.1.15,2013-10-17 22:35:00,
2013-10-17 19:40:00,60.7,56.5,29.83,SW,216,3.0,15.0,86,0.00,,,0.36,Wunderground v.1.15,2013-10-17 22:40:00,
2013-10-17 19:45:00,60.5,56.3,29.83,South,174,3.0,15.0,86,0.00,,,0.36,Wunderground v.1.15,2013-10-17 22:45:00,
2013-10-17 19:50:00,60.2,56.0,29.83,SSW,198,3.0,15.0,86,0.00,,,0.36,Wunderground v.1.15,2013-10-17 22:50:00,
2013-10-17 19:55:00,59.9,56.0,29.83,South,174,3.0,15.0,87,0.00,,,0.36,Wunderground v.1.15,2013-10-17 22:55:00,
2013-10-17 20:00:00,59.7,55.8,29.83,SW,217,3.0,15.0,87,0.00,,,0.36,Wunderground v.1.15,2013-10-17 23:00:00,
2013-10-17 20:10:00,59.7,56.1,29.83,SSW,195,5.0,5.0,88,0.00,,,0.36,Wunderground v.1.15,2013-10-17 23:10:00,
2013-10-17 20:15:00,59.7,56.1,29.83,SW,228,4.0,15.0,88,0.00,,,0.36,Wunderground v.1.15,2013-10-17 23:15:00,
2013-10-17 20:20:00,59.6,56.0,29.83,SW,214,3.0,3.0,88,0.00,,,0.36,Wunderground v.1.15,2013-10-17 23:20:00,
2013-10-17 20:25:00,59.5,55.9,29.84,South,175,3.0,15.0,88,0.00,,,0.36,Wunderground v.1.15,2013-10-17 23:25:00,
2013-10-17 20:30:00,59.4,55.8,29.84,SW,219,2.0,15.0,88,0.00,,,0.36,Wunderground v.1.15,2013-10-17 23:30:00,
2013-10-17 20:35:00,59.3,56.1,29.84,WSW,239,3.0,15.0,89,0.00,,,0.36,Wunderground v.1.15,2013-10-17 23:35:00,
2013-10-17 20:45:00,59.2,56.0,29.84,SW,222,3.0,15.0,89,0.00,,,0.36,Wunderground v.1.15,2013-10-17 23:45:00,
2013-10-17 20:50:00,59.1,55.9,29.84,SSW,207,3.0,15.0,89,0.00,,,0.36,Wunderground v.1.15,2013-10-17 23:50:00,
2013-10-17 20:55:00,59.0,55.8,29.84,SW,221,3.0,15.0,89,0.00,,,0.36,Wunderground v.1.15,2013-10-17 23:55:00,
2013-10-17 21:00:00,59.0,56.1,29.84,SSW,210,2.0,2.0,90,0.00,,,0.36,Wunderground v.1.15,2013-10-18 00:00:00,
2013-10-17 21:05:00,58.9,56.0,29.84,SW,225,2.0,15.0,90,0.00,,,0.36,Wunderground v.1.15,2013-10-18 00:05:00,
2013-10-17 21:15:00,58.7,55.8,29.85,WSW,239,2.0,15.0,90,0.00,,,0.36,Wunderground v.1.15,2013-10-18 00:15:00,
2013-10-17 21:20:00,58.7,55.8,29.85,South,190,3.0,3.0,90,0.00,,,0.36,Wunderground v.1.15,2013-10-18 00:20:00,
2013-10-17 21:25:00,58.6,56.0,29.85,South,191,2.0,15.0,91,0.00,,,0.36,Wunderground v.1.15,2013-10-18 00:25:00,
2013-10-17 21:30:00,58.4,55.8,29.85,SSW,203,2.0,2.0,91,0.00,,,0.36,Wunderground v.1.15,2013-10-18 00:30:00,
2013-10-17 21:35:00,58.3,55.7,29.84,SSW,203,2.0,3.0,91,0.00,,,0.36,Wunderground v.1.15,2013-10-18 00:35:00,
2013-10-17 21:40:00,58.1,55.8,29.84,SSW,193,2.0,15.0,92,0.00,,,0.36,Wunderground v.1.15,2013-10-18 00:40:00,
2013-10-17 21:50:00,58.0,55.7,29.84,South,191,3.0,3.0,92,0.00,,,0.36,Wunderground v.1.15,2013-10-18 00:50:00,
2013-10-17 21:55:00,57.9,55.6,29.84,South,170,3.0,15.0,92,0.00,,,0.36,Wunderground v.1.15,2013-10-18 00:55:00,
2013-10-17 22:00:00,57.8,55.5,29.84,SSW,201,3.0,3.0,92,0.00,,,0.36,Wunderground v.1.15,2013-10-18 01:00:00,
2013-10-17 22:05:00,57.8,55.5,29.84,SW,214,3.0,15.0,92,0.00,,,0.36,Wunderground v.1.15,2013-10-18 01:05:00,
2013-10-17 22:10:00,57.7,55.7,29.84,SW,221,2.0,15.0,93,0.00,,,0.36,Wunderground v.1.15,2013-10-18 01:10:00,
2013-10-17 22:20:00,57.5,55.5,29.85,SSW,207,2.0,2.0,93,0.00,,,0.36,Wunderground v.1.15,2013-10-18 01:20:00,
2013-10-17 22:25:00,57.4,55.4,29.85,SSW,196,1.0,15.0,93,0.00,,,0.36,Wunderground v.1.15,2013-10-18 01:25:00,
2013-10-17 22:30:00,57.4,55.4,29.85,South,190,1.0,15.0,93,0.00,,,0.36,Wunderground v.1.15,2013-10-18 01:30:00,
2013-10-17 22:35:00,57.3,55.3,29.85,SSW,201,2.0,15.0,93,0.00,,,0.36,Wunderground v.1.15,2013-10-18 01:35:00,
2013-10-17 22:40:00,57.3,55.3,29.85,South,173,2.0,15.0,93,0.00,,,0.36,Wunderground v.1.15,2013-10-18 01:40:00,
2013-10-17 22:45:00,57.3,55.3,29.85,SE,129,2.0,15.0,93,0.00,,,0.36,Wunderground v.1.15,2013-10-18 01:45:00,
2013-10-17 22:55:00,57.0,55.0,29.85,South,172,2.0,15.0,93,0.00,,,0.36,Wunderground v.1.15,2013-10-18 01:55:00,
2013-10-17 23:00:00,56.8,54.8,29.85,WSW,252,2.0,2.0,93,0.00,,,0.36,Wunderground v.1.15,2013-10-18 02:00:00,
2013-10-17 23:05:00,56.5,54.5,29.85,SSW,193,1.0,15.0,93,0.00,,,0.36,Wunderground v.1.15,2013-10-18 02:05:00,
2013-10-17 23:10:00,56.3,54.3,29.85,SSW,197,2.0,2.0,93,0.00,,,0.36,Wunderground v.1.15,2013-10-18 02:10:00,
2013-10-17 23:15:00,56.0,54.0,29.85,SSW,205,2.0,15.0,93,0.00,,,0.36,Wunderground v.1.15,2013-10-18 02:15:00,
2013-10-17 23:20:00,55.8,53.8,29.85,SSW,201,1.0,1.0,93,0.00,,,0.36,Wunderground v.1.15,2013-10-18 02:20:00,
2013-10-17 23:25:00,55.6,53.6,29.85,WSW,238,2.0,2.0,93,0.00,,,0.36,Wunderground v.1.15,2013-10-18 02:25:00,
2013-10-17 23:30:00,55.5,53.5,29.85,SSW,200,3.0,3.0,93,0.00,,,0.36,Wunderground v.1.15,2013-10-18 02:30:00,
2013-10-17 23:35:00,55.4,53.4,29.85,SW,229,2.0,15.0,93,0.00,,,0.36,Wunderground v.1.15,2013-10-18 02:35:00,
2013-10-17 23:40:00,55.2,53.2,29.85,SSW,208,2.0,2.0,93,0.00,,,0.36,Wunderground v.1.15,2013-10-18 02:40:00,
2013-10-17 23:45:00,55.0,53.0,29.84,SSW,193,2.0,15.0,93,0.00,,,0.36,Wunderground v.1.15,2013-10-18 02:45:00,
2013-10-17 23:55:00,54.7,53.0,29.84,SSW,204,2.0,15.0,94,0.00,,,0.36,Wunderground v.1.15,2013-10-18 02:55:00,